Home   Weather   Ilioupoli   Past weeks

Flag for Greece Past Weather in Ilioupoli, Greece — Yesterday and Last 2 Weeks

Now
72 °F

Sunny.


Feels Like: 76 °F
Forecast: 50 / 73 °F
Wind: 7 mph from Southwest

Location: Eleftherios Venizelos International Airport

Current Time: Apr 26, 2017 at 7:17:44 pm

Latest Report: Apr 26, 2017 at 6:20 pm


Visibility: 10 mi

Pressure: 30.07 "Hg

Humidity: 25%

Dew Point: 34 °F

Location of IlioupoliLocation

Past Weather in Ilioupoli — Graph

°F

Ilioupoli Temperature Yesterday

Maximum temperature yesterday: 70 °F (at 4:20 pm)
Minimum temperature yesterday: 43 °F (at 4:50 am)
Average temperature yesterday: 57 °F

High & Low Weather Summary for the Past Weeks

 TemperatureHumidityPressure
High77 °F (Apr 15, 3:50 pm)100% (Apr 17, 1:20 am)30.24 "Hg (Apr 17, 1:20 am)
Low39 °F (Apr 12, 5:50 am)19% (Apr 20, 7:20 pm)29.77 "Hg (Apr 13, 5:20 pm)
Average59 °F61%29.99 "Hg
* Reported Apr 11 5:20 pm — Apr 26 5:50 pm, Ilioupoli, Weather by CustomWeather, © 2017

Note: Actual official high and low records may vary slightly from our data, if they occured in-between our weather recording intervals... More about our weather records

Advertising

Ilioupoli Weather History for the Previous 24 Hours

Scroll right to see more
 ConditionsComfort  
Time TempWeatherWind HumidityBarometerVisibility
5:50 pm
Wed, Apr 26
72 °FSunny.8 mph25%30.07 "Hg10 mi
5:20 pm72 °FPassing clouds.9 mph25%30.07 "HgN/A
4:50 pm72 °FPassing clouds.9 mph29%30.09 "HgN/A
4:20 pm73 °FPassing clouds.8 mph27%30.09 "HgN/A
3:50 pm73 °FPassing clouds.7 mph27%30.09 "HgN/A
3:20 pm73 °FPassing clouds.9 mph29%30.09 "HgN/A
2:50 pm72 °FPassing clouds.7 mph33%30.12 "HgN/A
2:20 pm72 °FPassing clouds.8 mph41%30.12 "HgN/A
1:20 pm70 °FPassing clouds.9 mph35%30.12 "HgN/A
12:50 pm70 °FSunny.9 mph38%30.12 "Hg10 mi
12:20 pm70 °FPassing clouds.8 mph40%30.15 "HgN/A
11:50 am68 °FPassing clouds.6 mph40%30.15 "HgN/A
11:20 am68 °FSunny.3 mph40%30.15 "Hg10 mi
10:50 am68 °FSunny.2 mph35%30.15 "Hg10 mi
10:20 am66 °FSunny.2 mph43%30.12 "Hg10 mi
9:50 am64 °FSunny.1 mph43%30.12 "Hg10 mi
9:20 am63 °FSunny.1 mph52%30.12 "Hg10 mi
8:50 am59 °FSunny.1 mph63%30.12 "Hg10 mi
8:20 am55 °FSunny.No wind67%30.12 "Hg10 mi
7:50 am52 °FSunny.1 mph72%30.12 "Hg10 mi
7:20 am50 °FSunny.2 mph71%30.12 "Hg10 mi
6:50 am50 °FSunny.2 mph76%30.12 "Hg10 mi
6:20 am45 °FClear.2 mph93%30.12 "Hg10 mi
5:50 am45 °FClear.1 mph87%30.12 "Hg10 mi
5:20 am43 °FClear.3 mph93%30.12 "Hg10 mi
4:50 am50 °FClear.1 mph71%30.12 "Hg10 mi
4:20 am50 °FClear.2 mph76%30.12 "Hg10 mi
3:50 am52 °FClear.1 mph72%30.12 "Hg10 mi
3:20 am50 °FClear.1 mph71%30.12 "Hg10 mi
2:50 am54 °FClear.No wind67%30.12 "Hg10 mi
2:20 am54 °FClear.6 mph67%30.15 "Hg10 mi
1:50 am54 °FClear.5 mph72%30.15 "Hg10 mi
1:20 am55 °FClear.2 mph67%30.15 "Hg10 mi
12:50 am55 °FPassing clouds.5 mph67%30.15 "HgN/A
12:20 am55 °FClear.5 mph72%30.15 "Hg10 mi
11:50 pm
Tue, Apr 25
57 °FClear.3 mph63%30.18 "Hg10 mi
11:20 pm52 °FClear.3 mph72%30.18 "Hg10 mi
10:50 pm57 °FClear.No wind59%30.18 "Hg10 mi
10:20 pm55 °FClear.1 mph67%30.18 "Hg10 mi
9:50 pm55 °FClear.2 mph67%30.15 "Hg10 mi
9:20 pm55 °FClear.1 mph67%30.15 "Hg10 mi
8:50 pm57 °FClear.3 mph63%30.15 "Hg10 mi
8:20 pm59 °FClear.5 mph55%30.15 "Hg10 mi
7:50 pm61 °FPassing clouds.5 mph52%30.15 "HgN/A
7:20 pm63 °FSunny.8 mph52%30.15 "Hg10 mi
Weather by CustomWeather, © 2017

See weather overviewHow to use our weather pages